Tracking 22458 objects as of 2-Mar-2021
HD Live streaming from Space Station
objects crossing your sky now

FENGYUN 2E DEB

Track FENGYUN 2E DEB now!


NORAD ID: 40987
Int'l Code: 2008-066D
Perigee: 35,225.4 km
Apogee: 36,393.0 km
Inclination: 5.9 °
Period: 1,436.9 minutes
Semi major axis: 42180 km
RCS: Unknown
Launch date: December 23, 2008
Source: People's Republic of China (PRC)
Launch site: Xichang Space Center, China (XSC)

Note: This is SATELLITE DEBRIS
aabbcc
Your satellite tracking list
Your tracking list is empty




NASA's NSSDC Master Catalog

Two Line Element Set (TLE):
1 40987U 08066D   20194.25383371 +.00000084 +00000+0 +00000+0 0  9996
2 40987   5.8769  57.6412 0138398 310.9757  47.8216  1.00216653040730
Source of the keplerian elements: AFSPC